ANA508 RJFM-RJOO

Flight info

Callsign ANA508
Flight time 0h 43m
Altitude 33000
Route MADOG Y753 IZUMI
Aircraft B788/H-SDE1E2E3FGHIJ2J3J4J5M1RWXY/LB1D1

Departure

Time 2026-04-30 06:20
Airport Miyazaki Airport (RJFM)

Arrival

Time 2026-04-30 07:03
Airport Osaka Itami International Airport (RJOO)
Time Latitude Longitude Altitude Speed Heading
2026-04-30 06:00 31.87360 131.44146 36 ft 0 kts 176°
2026-04-30 06:12 31.87365 131.44145 53 ft 4 kts 176°
2026-04-30 06:12 31.87383 131.44144 31 ft 4 kts 175°
2026-04-30 06:13 31.87405 131.44142 35 ft 4 kts 176°
2026-04-30 06:13 31.87432 131.44142 34 ft 4 kts 189°
2026-04-30 06:13 31.87458 131.44150 35 ft 4 kts 204°
2026-04-30 06:13 31.87480 131.44165 34 ft 2 kts 216°
2026-04-30 06:14 31.87485 131.44169 35 ft 0 kts 216°
2026-04-30 06:16 31.87483 131.44167 34 ft 1 kts 221°
2026-04-30 06:16 31.87484 131.44152 35 ft 3 kts 269°
2026-04-30 06:16 31.87488 131.44111 36 ft 6 kts 274°
2026-04-30 06:17 31.87487 131.44055 36 ft 8 kts 268°
2026-04-30 06:17 31.87482 131.43980 36 ft 10 kts 265°
2026-04-30 06:17 31.87475 131.43888 37 ft 12 kts 264°
2026-04-30 06:17 31.87463 131.43718 41 ft 18 kts 266°
2026-04-30 06:18 31.87456 131.43579 42 ft 12 kts 269°
2026-04-30 06:18 31.87497 131.43520 41 ft 5 kts 337°
2026-04-30 06:18 31.87532 131.43526 40 ft 6 kts 12°
2026-04-30 06:18 31.87592 131.43551 39 ft 12 kts 31°
2026-04-30 06:19 31.87627 131.43655 37 ft 18 kts 81°
2026-04-30 06:19 31.87646 131.43932 39 ft 63 kts 85°
2026-04-30 06:19 31.87707 131.44776 39 ft 142 kts 84°
2026-04-30 06:19 31.87786 131.46117 543 ft 165 kts 85°
2026-04-30 06:20 31.87887 131.47413 1687 ft 160 kts 76°
2026-04-30 06:20 31.88347 131.48658 2402 ft 179 kts 59°
2026-04-30 06:20 31.89015 131.49977 3153 ft 195 kts 60°
2026-04-30 06:20 31.89713 131.51504 3686 ft 228 kts 68°
2026-04-30 06:21 31.90269 131.53380 4305 ft 257 kts 75°
2026-04-30 06:21 31.90771 131.55468 5245 ft 272 kts 76°
2026-04-30 06:21 31.91321 131.57677 6082 ft 292 kts 75°
2026-04-30 06:21 31.91934 131.59967 7063 ft 300 kts 75°
2026-04-30 06:22 31.92566 131.62332 8191 ft 304 kts 75°
2026-04-30 06:22 31.93189 131.64720 9328 ft 310 kts 75°
2026-04-30 06:22 31.93828 131.67188 10219 ft 322 kts 75°
2026-04-30 06:22 31.94511 131.69811 10669 ft 349 kts 75°
2026-04-30 06:23 31.95256 131.72655 11032 ft 377 kts 74°
2026-04-30 06:23 31.96055 131.75711 11290 ft 404 kts 74°
2026-04-30 06:23 31.96906 131.78981 11353 ft 431 kts 74°
2026-04-30 06:23 31.97794 131.82397 11992 ft 437 kts 74°
2026-04-30 06:24 31.98687 131.85827 12735 ft 441 kts 73°
2026-04-30 06:24 31.99590 131.89303 13432 ft 446 kts 73°
2026-04-30 06:24 32.00500 131.92816 14087 ft 450 kts 73°
2026-04-30 06:24 32.01416 131.96358 14698 ft 455 kts 73°
2026-04-30 06:25 32.02344 131.99949 15241 ft 461 kts 74°
2026-04-30 06:25 32.03286 132.03596 15784 ft 468 kts 74°
2026-04-30 06:25 32.04236 132.07281 16313 ft 473 kts 74°
2026-04-30 06:25 32.05195 132.11008 16811 ft 478 kts 74°
2026-04-30 06:26 32.06164 132.14776 17290 ft 483 kts 74°
2026-04-30 06:26 32.07143 132.18587 17745 ft 488 kts 74°
2026-04-30 06:26 32.08116 132.22383 18230 ft 491 kts 74°
2026-04-30 06:26 32.09107 132.26251 18609 ft 496 kts 74°
2026-04-30 06:27 32.10106 132.30160 18998 ft 499 kts 74°
2026-04-30 06:27 32.11110 132.34094 19368 ft 503 kts 74°
2026-04-30 06:27 32.12146 132.38050 19711 ft 507 kts 72°
2026-04-30 06:27 32.13668 132.41815 20070 ft 511 kts 59°
2026-04-30 06:28 32.15551 132.45380 20475 ft 512 kts 58°
2026-04-30 06:28 32.17449 132.48956 20821 ft 516 kts 57°
2026-04-30 06:28 32.19360 132.52572 21071 ft 523 kts 57°
2026-04-30 06:28 32.21282 132.56232 21441 ft 526 kts 57°
2026-04-30 06:29 32.23214 132.59913 21746 ft 529 kts 57°
2026-04-30 06:29 32.25164 132.63619 22069 ft 531 kts 57°
2026-04-30 06:29 32.27111 132.67323 22510 ft 531 kts 57°
2026-04-30 06:29 32.29056 132.71034 22946 ft 531 kts 57°
2026-04-30 06:30 32.31005 132.74755 23322 ft 533 kts 57°
2026-04-30 06:30 32.32969 132.78483 23585 ft 538 kts 57°
2026-04-30 06:30 32.34931 132.82237 24086 ft 534 kts 58°
2026-04-30 06:30 32.36865 132.85971 24556 ft 532 kts 58°
2026-04-30 06:31 32.38805 132.89693 24982 ft 532 kts 58°
2026-04-30 06:31 32.40753 132.93409 25424 ft 532 kts 58°
2026-04-30 06:31 32.42697 132.97134 25894 ft 531 kts 59°
2026-04-30 06:31 32.44631 133.00865 26332 ft 532 kts 59°
2026-04-30 06:32 32.46569 133.04599 26839 ft 531 kts 59°
2026-04-30 06:32 32.48481 133.08273 27349 ft 531 kts 59°
2026-04-30 06:32 32.50415 133.11995 27892 ft 531 kts 59°
2026-04-30 06:32 32.52348 133.15728 28461 ft 531 kts 59°
2026-04-30 06:33 32.54275 133.19454 29056 ft 531 kts 60°
2026-04-30 06:33 32.56205 133.23186 29675 ft 531 kts 60°
2026-04-30 06:33 32.58137 133.26922 30221 ft 532 kts 59°
2026-04-30 06:33 32.60071 133.30668 30757 ft 532 kts 59°
2026-04-30 06:34 32.62002 133.34414 31350 ft 532 kts 59°
2026-04-30 06:34 32.63933 133.38163 31888 ft 534 kts 59°
2026-04-30 06:34 32.65868 133.41925 32449 ft 535 kts 59°
2026-04-30 06:34 32.67781 133.45718 32918 ft 537 kts 60°
2026-04-30 06:35 32.69662 133.49540 32940 ft 533 kts 60°
2026-04-30 06:35 32.71523 133.53295 32943 ft 521 kts 60°
2026-04-30 06:35 32.73368 133.56964 32953 ft 515 kts 60°
2026-04-30 06:36 32.77017 133.64285 32942 ft 515 kts 61°
2026-04-30 06:36 32.80627 133.71558 32955 ft 514 kts 60°
2026-04-30 06:37 32.84268 133.78891 32972 ft 516 kts 60°
2026-04-30 06:37 32.87910 133.86251 32971 ft 515 kts 60°
2026-04-30 06:38 32.91542 133.93599 32970 ft 515 kts 61°
2026-04-30 06:38 32.95166 134.00950 32985 ft 515 kts 61°
2026-04-30 06:39 32.98782 134.08297 32983 ft 512 kts 60°
2026-04-30 06:39 33.02384 134.15632 32993 ft 513 kts 60°
2026-04-30 06:40 33.06161 134.22859 33001 ft 516 kts 50°
2026-04-30 06:40 33.08649 134.25907 33029 ft 509 kts 38°
2026-04-30 06:40 33.11324 134.28667 33020 ft 509 kts 38°
2026-04-30 06:41 33.16734 134.34153 33031 ft 511 kts 38°
2026-04-30 06:41 33.22151 134.39710 33025 ft 514 kts 38°
2026-04-30 06:42 33.27561 134.45245 33017 ft 508 kts 38°
2026-04-30 06:42 33.32930 134.50752 33031 ft 509 kts 38°
2026-04-30 06:42 33.35619 134.53517 32688 ft 515 kts 38°
2026-04-30 06:43 33.38377 134.56348 32072 ft 526 kts 38°
2026-04-30 06:43 33.41149 134.59201 31878 ft 524 kts 38°
2026-04-30 06:43 33.43872 134.62008 31669 ft 525 kts 38°
2026-04-30 06:43 33.46623 134.64845 31482 ft 518 kts 38°
2026-04-30 06:44 33.49341 134.67648 31262 ft 514 kts 38°
2026-04-30 06:44 33.52051 134.70445 31044 ft 514 kts 38°
2026-04-30 06:44 33.54763 134.73247 30860 ft 514 kts 38°
2026-04-30 06:44 33.57484 134.76058 30682 ft 521 kts 39°
2026-04-30 06:45 33.60363 134.78694 30499 ft 518 kts 28°
2026-04-30 06:45 33.63422 134.80962 30304 ft 517 kts 28°
2026-04-30 06:45 33.66486 134.83213 30091 ft 515 kts 28°
2026-04-30 06:45 33.69535 134.85448 29870 ft 513 kts 28°
2026-04-30 06:46 33.72583 134.87695 29628 ft 513 kts 28°
2026-04-30 06:46 33.75616 134.89942 28707 ft 513 kts 28°
2026-04-30 06:46 33.78669 134.92196 27668 ft 516 kts 28°
2026-04-30 06:46 33.81725 134.94452 26726 ft 514 kts 28°
2026-04-30 06:47 33.84770 134.96707 25617 ft 517 kts 27°
2026-04-30 06:47 33.87847 134.98985 24540 ft 519 kts 27°
2026-04-30 06:47 33.90919 135.01261 23798 ft 512 kts 27°
2026-04-30 06:47 33.93908 135.03486 23049 ft 500 kts 27°
2026-04-30 06:48 33.96853 135.05671 22158 ft 493 kts 27°
2026-04-30 06:48 33.99751 135.07820 21336 ft 485 kts 27°
2026-04-30 06:48 34.02599 135.09937 20517 ft 477 kts 27°
2026-04-30 06:48 34.05406 135.12029 19632 ft 472 kts 27°
2026-04-30 06:49 34.08181 135.14095 18824 ft 465 kts 27°
2026-04-30 06:49 34.10898 135.16119 18065 ft 454 kts 27°
2026-04-30 06:49 34.13579 135.18119 17080 ft 450 kts 28°
2026-04-30 06:49 34.16229 135.20098 16108 ft 446 kts 28°
2026-04-30 06:50 34.18852 135.22057 15154 ft 440 kts 28°
2026-04-30 06:50 34.21449 135.23998 14206 ft 436 kts 28°
2026-04-30 06:50 34.23940 135.26045 13227 ft 430 kts 32°
2026-04-30 06:50 34.26402 135.28036 12312 ft 421 kts 31°
2026-04-30 06:51 34.28822 135.29974 11483 ft 412 kts 32°
2026-04-30 06:51 34.31154 135.31885 10994 ft 396 kts 33°
2026-04-30 06:51 34.33361 135.33712 10821 ft 372 kts 33°
2026-04-30 06:51 34.35435 135.35413 10682 ft 349 kts 33°
2026-04-30 06:52 34.37387 135.37003 10567 ft 328 kts 33°
2026-04-30 06:52 34.39239 135.38520 10232 ft 318 kts 33°
2026-04-30 06:52 34.41057 135.40012 9825 ft 312 kts 33°
2026-04-30 06:52 34.42809 135.41450 9453 ft 304 kts 34°
2026-04-30 06:53 34.44388 135.43152 8824 ft 302 kts 57°
2026-04-30 06:53 34.45432 135.45322 8247 ft 302 kts 63°
2026-04-30 06:53 34.46435 135.47521 7845 ft 294 kts 63°
2026-04-30 06:53 34.47408 135.49661 7490 ft 285 kts 63°
2026-04-30 06:54 34.48363 135.51733 7149 ft 277 kts 63°
2026-04-30 06:54 34.49291 135.53744 6833 ft 269 kts 64°
2026-04-30 06:54 34.50199 135.55723 6507 ft 269 kts 64°
2026-04-30 06:54 34.51094 135.57669 6192 ft 261 kts 64°
2026-04-30 06:55 34.51961 135.59560 5879 ft 252 kts 64°
2026-04-30 06:55 34.52804 135.61394 5587 ft 245 kts 65°
2026-04-30 06:55 34.53605 135.63135 5326 ft 228 kts 65°
2026-04-30 06:55 34.54566 135.64606 5104 ft 219 kts 44°
2026-04-30 06:56 34.55418 135.65180 5021 ft 207 kts 25°
2026-04-30 06:56 34.56791 135.65410 4882 ft 194 kts
2026-04-30 06:56 34.58620 135.65404 4754 ft 197 kts
2026-04-30 06:56 34.59527 135.65403 4662 ft 196 kts
2026-04-30 06:57 34.60815 135.64920 4390 ft 197 kts 323°
2026-04-30 06:57 34.61777 135.63785 4257 ft 187 kts 314°
2026-04-30 06:57 34.62732 135.62661 4012 ft 192 kts 314°
2026-04-30 06:57 34.63669 135.61531 3764 ft 189 kts 314°
2026-04-30 06:58 34.64596 135.60407 3521 ft 189 kts 315°
2026-04-30 06:58 34.65527 135.59282 3266 ft 189 kts 316°
2026-04-30 06:58 34.66436 135.58192 3010 ft 182 kts 316°
2026-04-30 06:58 34.67313 135.57128 2779 ft 173 kts 316°
2026-04-30 06:59 34.68132 135.56150 2539 ft 155 kts 317°
2026-04-30 06:59 34.68878 135.55245 2344 ft 152 kts 317°
2026-04-30 06:59 34.69617 135.54359 2148 ft 148 kts 319°
2026-04-30 06:59 34.70355 135.53473 1949 ft 149 kts 319°
2026-04-30 07:00 34.71092 135.52581 1737 ft 146 kts 319°
2026-04-30 07:00 34.71811 135.51709 1537 ft 145 kts 319°
2026-04-30 07:00 34.72542 135.50827 1350 ft 141 kts 320°
2026-04-30 07:00 34.73236 135.49991 1153 ft 140 kts 319°
2026-04-30 07:01 34.73926 135.49160 983 ft 139 kts 318°
2026-04-30 07:01 34.74600 135.48331 776 ft 138 kts 320°
2026-04-30 07:01 34.75256 135.47527 543 ft 133 kts 319°
2026-04-30 07:01 34.75915 135.46732 364 ft 135 kts 318°
2026-04-30 07:02 34.76571 135.45929 231 ft 134 kts 321°
2026-04-30 07:02 34.77255 135.45137 91 ft 136 kts 319°
2026-04-30 07:02 34.77856 135.44417 51 ft 99 kts 312°
2026-04-30 07:02 34.78224 135.43967 49 ft 59 kts 315°
2026-04-30 07:03 34.78446 135.43700 49 ft 34 kts 315°
2026-04-30 07:03 34.78637 135.43536 50 ft 33 kts 334°
2026-04-30 07:03 34.78838 135.43433 50 ft 26 kts 345°
2026-04-30 07:03 34.78990 135.43447 53 ft 28 kts 22°
2026-04-30 07:04 34.79078 135.43572 49 ft 14 kts 107°
2026-04-30 07:04 34.78979 135.43713 50 ft 31 kts 135°
2026-04-30 07:04 34.78871 135.43859 50 ft 12 kts 109°
2026-04-30 07:04 34.78862 135.43983 50 ft 19 kts 123°
2026-04-30 07:05 34.78770 135.44148 54 ft 5 kts 67°
2026-04-30 07:05 34.78787 135.44199 52 ft 8 kts 67°
2026-04-30 07:05 34.78807 135.44257 49 ft 6 kts 68°
2026-04-30 07:06 34.78816 135.44283 52 ft 2 kts 67°
2026-04-30 07:06 34.78817 135.44287 52 ft 0 kts 67°
2026-04-30 07:07 34.73300 135.49913 1149 ft 140 kts 319°